DMSP 5D-2 F13 DEB, 40579

Orbit data source: Space-Track

DMSP 5D-2 F13 DEB, 40579 is space debris in SSO originally from a launch on Fri, 24 Mar 1995 UTC launched from the Air Force Western Test Range (AFWTR). Debris objects in space refer to the collection of defunct objects orbiting the Earth. Examples of debris include non-operational satellites, rocket bodies, and fragments generated from explosions, collisions, or faulty payload assembly.

Loading next visibility...
Identifier
40579, 1995-015EN
Orbit
SSO
Country
Flag of USUS
Related business
Manufacturer
Unknown
Mission
Spacecraft
Bus & Motor
Unknown
Mass
Unknown
Launch date (UTC)
1995-03-24 (31 years ago)
Launch vehicle
Unknown
Launch site
Air Force Western Test Range (AFWTR)
Object type
Payload
Rocket body
Debris
Shape & HBR
Unknown shape, 0.1 m
Radar Cross Section
Small (<0.1 m²)

Expand to show TLE details & history
Last TLE update: 21 hours ago

TLE from 21 hours ago
0 DMSP 5D-2 F13 DEB
1 40579U 95015EN  25307.68574566  .00124503  00000-0  80041-2 0  9999
2 40579  98.4708  30.9713 0021633 224.2310 135.7186 15.07625066557405
Epoch: 2025-11-03T16:27Z
TLE epoch observation values (Epoch: 2025-11-03T16:27:28.425Z)
Latitude
-0.00006°
Longitude
100.9193°
Altitude
557.238 km
Speed
7.577 km/s
True Right ascension
02h 03m 53s
True Declination
0° 00' 00"
Sunlit
Object was in full shadow at epoch
Visualization orbit readout
Latitude
Unknown
Longitude
Unknown
Altitude
Unknown
Speed
Unknown
Apparent Right ascension
Unknown
Apparent Declination
Unknown
Sunlit
N/A
Visualization observer readout
Local Sidereal Time
09:08:08
Azimuth
Unknown
Elevation
Unknown
Doppler factor
Unknown
Orbital elements
Apogee altitude
555.457 km
Perigee altitude
525.523 km
Semi-major axis
6,918.627 km
Eccentricity
0.00216
Inclination
98.4708°
RAAN
30.9713°
Arg. of periapsis
224.231°
True anomaly
135.89134°
Mean anomaly
135.7186°
Eccentric anomaly
135.805°
Mean motion
3.77149 °/min
Orbital period
95.45 mins
BSTAR
0.0080041

Documentation

Showing up to 5 results
|